Regional Weather Roundup
Issued by NWS Mobile, AL

Home | Current Version | Previous Version | Text Only | Print | Product List | Glossary Off
Versions: 1 2 3 4 5 6 7 8 9 10 11 12 13 14 15 16 17 18 19 20 21 22 23 24 25 26 27 28 29 30 31 32 33 34 35 36 37 38 39 40 41 42 43 44 45 46 47 48 49

000
ASUS44 KMOB 241712
RWRMOB
REGIONAL WEATHER ROUNDUP
NATIONAL WEATHER SERVICE MOBILE AL
1200 PM CDT TUE MAY 24 2016

NOTE: "FAIR" INDICATES FEW OR NO CLOUDS BELOW 12,000 FEET WITH NO
      SIGNIFICANT WEATHER AND/OR OBSTRUCTIONS TO VISIBILITY.

  * THESE STATIONS ARE PART OF THE UNIVERSITY OF SOUTH ALABAMA
    MESONET AND ARE NOT UNDER NWS OR FAA QUALITY CONTROL.

ALZ061>064-241800-
COASTAL ALABAMA

CITY           SKY/WX    TMP DP  RH WIND       PRES   REMARKS
MOBILE REG APT MOSUNNY   83  61  47 SE13      30.15R
BROOKLEY FIELD MOSUNNY   81  63  54 S5        30.15S
USA CAMPUS*    NOT AVBL
DOG RIVER*     NOT AVBL


CITY           SKY/WX    TMP DP  RH WIND       PRES   REMARKS
MOUNT VERNON*  NOT AVBL
SARALAND*      NOT AVBL
BAY MINETTE*   NOT AVBL
LOXLEY*        NOT AVBL
ROBERTSDALE*   NOT AVBL
FAIRHOPE*      NOT AVBL
ELBERTA*       NOT AVBL
FOLEY*         NOT AVBL
GRAND BAY*     NOT AVBL
DAUPHIN ISLND* NOT AVBL
BON SCOUR NWR* NOT AVBL
GULF SHORES    SUNNY     81  60  48 SE9       30.14R

$$

ALZ051>060-241800-
INTERIOR SOUTHWEST AND SOUTH CENTRAL ALABAMA

CITY           SKY/WX    TMP DP  RH WIND       PRES   REMARKS
GREENVILLE     SUNNY     86  52  30 N6        30.14S
EVERGREEN      SUNNY     84  56  38 S6        30.15R
CASTLEBERRY*   NOT AVBL
ATMORE*        NOT AVBL
DIXIE*         NOT AVBL
ANDALUSIA/OPP  SUNNY     89  55  31 VRB5      30.14S
ANDALUSIA*     NOT AVBL
FLORALA APT    SUNNY     84  53  34 VRB3      30.15S
FLORALA*       NOT AVBL

$$

FLZ001>006-241800-
WESTERN FLORIDA PANHANDLE

CITY           SKY/WX    TMP DP  RH WIND       PRES   REMARKS
PENSACOLA      SUNNY     83  56  39 SE6       30.14R
NAS PENSACOLA  MOSUNNY   82  57  42 SE8       30.14R
MILTON         MOSUNNY   83  59  44 VRB3      30.14R
WHTNG S FIELD  MOSUNNY   85  58  39 CALM      30.13S


CITY           SKY/WX    TMP DP  RH WIND       PRES   REMARKS
WALNUT HILL*   NOT AVBL
JAY*           NOT AVBL
DUKE FIELD     MOSUNNY   86  50  28 CALM      30.13S
CRESTVIEW      SUNNY     85  52  32 CALM      30.14S
VALPARAISO     MOSUNNY   85  53  33 S8        30.13R
DESTIN         SUNNY     84  65  52 VRB5      30.13S

$$

MSZ076-079-241800-
INTERIOR SOUTHEAST MISSISSIPPI

CITY           SKY/WX    TMP DP  RH WIND       PRES   REMARKS
LEAKESVILLE*   NOT AVBL
AGRICOLA*      NOT AVBL

$$

MARINE OBSERVATIONS

STATION/POSITION TIME  TEMP    WIND        PRES    WAVE
                       AIR SEA DIR/SP/G            HT/PER
                 (UTC) (F)     (DEG/KT/KT) (MB)    (FT/S)
PASCAGOULA       1600   78     120/  7/  9 1020.0R
PETIT BOIS ISLND 1600   79     140/  8/ 10 1020.7R
GRAND BAY        1500   77     110/  7     1021.0S
KATRINA CUT      1600   77     120/  8     1021.0R
CEDAR POINT      1600   76     100/  6     1020.3R
E DAUPHIN ISLAND 1600   77     130/  6/  7 1020.2R
MIDDLE BAY LIGHT 1600   79     180/  2     1020.6R
USCG MOBILE BAY  1600   77 78  110/  3/  4 1021.1R
STATE DOCKS      1600   79 78              1020.4R
MEAHER PARK      1600   78     220/  5     1019.3R
WEEKS BAY        1500   81                   N/A
FORT MORGAN      1600   77     130/  7/  8 1020.0R
12 S ORANGE BCH  1650   76 79   80/  8/ 10 1020.1R   1/ 4
PENSACOLA BAY    1600      79   70/  4/  6 1020.5R
64 S DAUPHIN ISL 1600   77 77   90/  8/ 10 1019.6R

$$

SELECTED LOCATIONS ACROSS THE REGION

CITY           SKY/WX    TMP DP  RH WIND       PRES   REMARKS
NEW ORLEANS    PTSUNNY   86  68  54 S7        30.09S
GULFPORT       SUNNY     81  62  52 SE8       30.12S
PASCAGOULA AP  SUNNY     82  62  50 VRB5      30.13R
PASCAGOULA*    NOT AVBL
HATTIESBURG    SUNNY     85  55  35 S12       30.13S
LAUREL         SUNNY     82  57  42 SE9       30.14F
MERIDIAN       SUNNY     83  57  41 SW7       30.13S
JACKSON        MOSUNNY   84  58  40 SE12      30.11S
MONTGOMERY     SUNNY     86  52  30 SE3       30.15S
TROY           SUNNY     85  56  37 N7        30.16R
KINSTON*       NOT AVBL
GENEVA*        NOT AVBL
ASHFORD*       NOT AVBL
DOTHAN         SUNNY     85  52  32 SE9       30.18S
PANAMA CITY    SUNNY     87  52  29 CALM      30.12S

$$




USA.gov is the U.S. government's official web portal to all federal, state and local government web resources and services.